This is the latest recevied weather packets stored in our database for station/object DAX207-13. If no packets are shown the sender has not sent any weather packets the latest 10 day(s).
| Time | Temp. | Humidity | Pressure | Rain* | Wind** | Luminosity | Snow |
|---|---|---|---|---|---|---|---|
| 1788292224 | 16.11° C | 85% | 1021.5 hPa | 0 mm | - | 0 W/m² | - |
| 1788291624 | 16.11° C | 84% | 1021.6 hPa | 0 mm | - | 0 W/m² | - |
| 1788291024 | 16.11° C | 83% | 1021.4 hPa | 0 mm | - | 0 W/m² | - |
| 1788290424 | 16.11° C | 83% | 1021.5 hPa | 0 mm | - | 0 W/m² | - |
| 1788289824 | 16.11° C | 83% | 1021.5 hPa | 0 mm | - | 0 W/m² | - |
| 1788289224 | 16.67° C | 82% | 1021.5 hPa | 0 mm | - | 0 W/m² | - |
| 1788288624 | 16.67° C | 81% | 1021.3 hPa | 0 mm | - | 0 W/m² | - |
| 1788288024 | 16.67° C | 79% | 1021.3 hPa | 0 mm | - | 0 W/m² | - |
| 1788287424 | 17.22° C | 79% | 1021.1 hPa | 0 mm | - | 0 W/m² | - |
| 1788286824 | 17.22° C | 78% | 1021 hPa | 0 mm | - | 0 W/m² | - |
| 1788286224 | 17.78° C | 76% | 1020.9 hPa | 0 mm | - | 2 W/m² | - |
| 1788285624 | 17.78° C | 76% | 1020.6 hPa | 0 mm | - | 4 W/m² | - |
| 1788285024 | 17.78° C | 74% | 1020.6 hPa | 0 mm | - | 8 W/m² | - |
| 1788284424 | 18.33° C | 74% | 1020.6 hPa | 0 mm | - | 14 W/m² | - |
| 1788283824 | 18.33° C | 74% | 1020.4 hPa | 0 mm | - | 41 W/m² | - |
| 1788283224 | 18.33° C | 75% | 1020.5 hPa | 0 mm | - | 50 W/m² | - |
| 1788282624 | 18.33° C | 75% | 1020.4 hPa | 0 mm | - | 48 W/m² | - |
| 1788282024 | 18.33° C | 75% | 1020.1 hPa | 0 mm | - | 36 W/m² | - |
| 1788281424 | 18.33° C | 75% | 1020.2 hPa | 0 mm | - | 32 W/m² | - |
| 1788280824 | 18.33° C | 75% | 1020.5 hPa | 0 mm | - | 34 W/m² | - |
| 1788280224 | 18.89° C | 74% | 1020.6 hPa | 0 mm | - | 52 W/m² | - |
| 1788279624 | 18.89° C | 73% | 1020.5 hPa | 0 mm | - | 82 W/m² | - |
| 1788279024 | 18.89° C | 74% | 1020.4 hPa | 0 mm | - | 78 W/m² | - |
| 1788278424 | 18.33° C | 73% | 1020.3 hPa | 0 mm | - | 92 W/m² | - |
| 1788277824 | 19.44° C | 71% | 1020.2 hPa | 0 mm | - | 68 W/m² | - |
* Rain latest hour (hover to see other rain measurements)
** Current wind speed in m/s (hover to see current wind gust speed)